Погода в Белиджи

Россия / Республика Дагестан     41°52′30″N   48°23′26″E
темп.,
°C
ветер,
м/с
пор.,
м/с
влажн.,
%
обл.,
%
осадки,
мм/ч
давл.,
гПа
погр.,
м
13 мая, чт
чт1300:00+13сз22825 0.0 101517
03:00+13ююв22815 0.0 101535
06:00+13ююв44805 0.0 101495
09:00+13юв568217 0.0 1014121
12:00+13вюв678319 0.0 1014125
15:00+14в448038 0.0 101373
18:00+14зсз00873 0.0 101437
21:00+14ссз338153 0.0 101531
14 мая, пт
пт1400:00+14ссз22849 0.0 101418
03:00+14з00840 0.0 101410
06:00+15ю11835 0.0 101511
09:00+15вюв44835 0.0 101542
12:00+15вюв45855 0.0 101563
15:00+14юв34855 0.0 101469
18:00+16вюв1178100 0.0 101417
21:00+16вюв1171100 0.0 101511
15 мая, сб
сб1500:00+15вюв33745 0.0 101424
03:00+15ююв33760 0.0 101320
06:00+16юв44743 0.0 101423
09:00+15юв68744 0.0 101475
12:00+15вюв45725 0.0 101461
15:00+15ююз11740 0.0 101325
18:00+16в01700 0.0 101412
21:00+17в33660 0.0 101411
16 мая, вс
вс1600:00+15юв33765 0.0 101318
03:00+15ююв33740 0.0 101212
06:00+16ююв33710 0.0 101211
09:00+15юв56720 0.0 101256
12:00+16вюв510720 0.0 1010106
15:00+17вюв816670 0.0 1008160
18:00+17юв712670 0.0 1008140
21:00+17юв711680 0.0 1008104
17 мая, пн
пн1700:00+16юв56740 0.0 100748
03:00+15юв56740 0.0 100757
06:00+15юв45775 0.0 100752
09:00+15вюв57765 0.0 100779
12:00+16вюв597588 0.0 1006103
15:00+16в337766 0.0 100643
18:00+15с22810 0.0 100647
21:00+15сз338143 0.0 100624